DF1LON Weather Reports


time (UTC)temp
F
wind
direction
speed
knots
gust
knots
rain 1hr
in
rain 24hr
in
rain mn
in
humidity
%
barometer
mb
20260506143202 48 338 6.1 6.1 0.00 0.00 0.00 9 1006.0
20260506142202 48 338 6.1 6.1 0.00 0.00 0.00 9 1006.0
20260506141202 48 338 0.0 0.0 0.00 0.00 0.00 9 1006.0
20260506140202 48 338 4.3 4.3 0.00 0.00 0.00 9 1006.0
20260506135202 48 338 6.1 7.0 0.00 0.00 0.00 9 1006.0
20260506134204 48 338 1.7 1.7 0.00 0.00 0.00 9 1006.0
20260506133202 48 338 6.1 6.1 0.00 0.00 0.00 9 1006.0
20260506132202 48 338 2.6 3.5 0.00 0.00 0.00 9 1006.0
20260506131202 48 315 0.0 0.0 0.00 0.00 0.00 9 1006.0
20260506130201 48 338 5.2 5.2 0.00 0.00 0.00 9 1006.0
20260506125202 48 315 4.3 4.3 0.00 0.00 0.00 9 1006.0
20260506124202 48 338 0.0 0.0 0.00 0.00 0.00 9 1006.0
20260506123202 48 338 4.3 4.3 0.00 0.00 0.00 9 1006.0
20260506122202 48 338 5.2 6.1 0.00 0.00 0.00 9 1006.0
20260506121201 48 315 4.3 4.3 0.00 0.00 0.00 9 1006.0
20260506120203 48 338 4.3 4.3 0.00 0.00 0.00 9 1006.0
20260506115202 48 22 0.0 0.0 0.00 0.00 0.00 9 1006.0
20260506114202 48 338 4.3 4.3 0.00 0.00 0.00 9 1006.0
20260506113202 48 0 4.3 4.3 0.00 0.00 0.00 9 1006.0
20260506112201 48 315 3.5 3.5 0.00 0.00 0.00 9 1006.0
20260506111202 48 315 4.3 4.3 0.00 0.00 0.00 9 1005.0
20260506110202 48 315 5.2 5.2 0.00 0.00 0.00 9 1005.0
20260506105202 48 338 5.2 5.2 0.00 0.00 0.00 9 1006.0
20260506104202 48 338 2.6 3.5 0.00 0.00 0.00 9 1005.0
20260506103202 48 338 3.5 3.5 0.00 0.00 0.00 9 1005.0
20260506102202 48 0 4.3 4.3 0.00 0.00 0.00 9 1005.0
20260506101202 48 45 2.6 2.6 0.00 0.00 0.00 9 1005.0
20260506100202 48 338 6.1 6.1 0.00 0.00 0.00 9 1005.0
20260506095202 49 338 2.6 2.6 0.00 0.00 0.00 9 1005.0
20260506094201 49 338 6.1 7.0 0.00 0.00 0.00 9 1005.0
20260506093202 49 338 5.2 5.2 0.00 0.00 0.00 9 1005.0
20260506092202 49 315 0.0 0.0 0.00 0.00 0.00 9 1005.0
20260506091202 49 338 5.2 5.2 0.00 0.00 0.00 9 1005.0
20260506090202 49 338 0.0 0.0 0.00 0.00 0.00 9 1005.0
20260506085202 49 338 0.0 0.0 0.00 0.00 0.00 9 1005.0
20260506084203 49 338 6.1 7.8 0.00 0.00 0.00 9 1004.0
20260506083202 49 315 4.3 4.3 0.00 0.00 0.00 9 1004.0
20260506082202 49 315 0.0 0.0 0.00 0.00 0.00 9 1004.0
20260506081202 49 338 4.3 4.3 0.00 0.00 0.00 9 1004.0
20260506080202 48 338 6.1 6.1 0.00 0.00 0.00 9 1004.0
20260506073201 49 338 4.3 4.3 0.00 0.00 0.00 9 1004.0
20260506072202 49 338 4.3 4.3 0.00 0.00 0.00 9 1004.0
20260506071202 49 338 2.6 2.6 0.00 0.00 0.00 9 1004.0
20260506070202 49 338 5.2 5.2 0.00 0.00 0.00 9 1004.0
20260506062202 49 315 5.2 5.2 0.00 0.00 0.00 9 1004.0
20260506061202 49 338 4.3 4.3 0.00 0.00 0.00 9 1004.0
20260506060202 49 338 4.3 4.3 0.00 0.00 0.00 9 1004.0
20260506051202 49 68 3.5 4.3 0.00 0.00 0.00 9 1004.0
20260506050202 49 315 0.0 0.0 0.00 0.00 0.00 9 1004.0
20260506044202 49 338 4.3 4.3 0.00 0.00 0.00 9 1004.0
20260506043202 49 338 5.2 5.2 0.00 0.00 0.00 9 1004.0
20260506042202 49 338 3.5 3.5 0.00 0.00 0.00 9 1004.0
20260506041202 49 338 5.2 5.2 0.00 0.00 0.00 9 1004.0
20260506040202 49 338 3.5 3.5 0.00 0.00 0.00 9 1004.0
20260506035202 49 338 5.2 5.2 0.00 0.00 0.00 9 1004.0
20260506034202 49 338 4.3 4.3 0.00 0.00 0.00 9 1004.0
20260506033202 49 315 3.5 4.3 0.00 0.00 0.00 9 1004.0
20260506032202 49 292 3.5 3.5 0.00 0.00 0.00 9 1004.0
20260506031203 49 338 1.7 1.7 0.00 0.00 0.00 9 1004.0
20260506030202 49 338 1.7 2.6 0.00 0.00 0.00 9 1004.0
20260506025202 49 315 0.0 0.0 0.00 0.00 0.00 9 1004.0
20260506024202 49 315 3.5 4.3 0.00 0.00 0.00 9 1004.0
20260506023202 49 338 4.3 4.3 0.00 0.00 0.00 9 1004.0
20260506022202 49 0 4.3 4.3 0.00 0.00 0.00 9 1004.0
20260506021202 49 338 5.2 5.2 0.00 0.00 0.00 9 1004.0
20260506020202 49 338 4.3 4.3 0.00 0.00 0.00 9 1004.0
20260506015202 49 338 2.6 3.5 0.00 0.00 0.00 9 1005.0
20260506014202 49 315 3.5 4.3 0.00 0.00 0.00 9 1005.0
20260506013201 49 338 3.5 3.5 0.00 0.00 0.00 9 1005.0
20260506012202 49 338 3.5 3.5 0.00 0.00 0.00 9 1004.0
20260506011202 49 338 4.3 4.3 0.00 0.00 0.00 9 1005.0
20260506010202 49 338 2.6 3.5 0.00 0.00 0.00 9 1005.0
20260506005202 49 338 3.5 3.5 0.00 0.00 0.00 9 1005.0
20260506004203 49 338 5.2 5.2 0.00 0.00 0.00 9 1005.0
20260506003202 49 338 3.5 3.5 0.00 0.00 0.00 9 1005.0
20260506002202 50 315 3.5 3.5 0.00 0.00 0.00 9 1005.0
20260506001202 50 338 0.9 0.9 0.00 0.00 0.00 9 1005.0
20260506000204 50 338 4.3 4.3 0.00 0.00 0.00 9 1005.0
20260505235202 50 338 4.3 4.3 0.00 0.00 0.00 9 1005.0
20260505234202 50 338 5.2 5.2 0.00 0.00 0.00 9 1005.0
20260505233202 50 338 4.3 4.3 0.00 0.00 0.00 9 1005.0
20260505232202 50 338 6.1 6.1 0.00 0.00 0.00 9 1005.0
20260505231202 50 338 3.5 4.3 0.00 0.00 0.00 9 1005.0
20260505230202 50 315 5.2 5.2 0.00 0.00 0.00 9 1005.0
20260505225202 50 338 4.3 4.3 0.00 0.00 0.00 9 1006.0
20260505224202 50 0 4.3 4.3 0.00 0.00 0.00 9 1005.0
20260505223202 50 338 3.5 3.5 0.00 0.00 0.00 9 1005.0
20260505222202 50 338 6.1 6.1 0.00 0.00 0.00 9 1006.0
20260505221201 50 338 4.3 4.3 0.00 0.00 0.00 9 1006.0
20260505220202 51 338 3.5 4.3 0.00 0.00 0.00 9 1006.0
20260505215202 51 338 4.3 4.3 0.00 0.00 0.00 9 1006.0
20260505214202 51 338 4.3 4.3 0.00 0.00 0.00 9 1006.0
20260505213202 51 0 0.0 0.0 0.00 0.00 0.00 9 1006.0
20260505212202 51 338 4.3 4.3 0.00 0.00 0.00 9 1006.0
20260505211202 51 338 4.3 4.3 0.00 0.00 0.00 9 1006.0
20260505210202 51 338 2.6 3.5 0.00 0.00 0.00 9 1006.0
20260505205202 51 0 2.6 2.6 0.00 0.00 0.00 9 1006.0
20260505204202 51 338 4.3 4.3 0.00 0.00 0.00 9 1006.0
20260505203202 51 338 4.3 4.3 0.00 0.00 0.00 9 1006.0
20260505202202 51 0 4.3 5.2 0.00 0.00 0.00 9 1006.0
20260505201202 51 338 5.2 6.1 0.00 0.00 0.00 9 1006.0
20260505200203 51 22 3.5 3.5 0.00 0.00 0.00 9 1006.0
20260505195202 51 338 3.5 4.3 0.00 0.00 0.00 9 1006.0
20260505194202 51 338 4.3 4.3 0.00 0.00 0.00 9 1006.0
20260505193202 51 315 4.3 5.2 0.00 0.00 0.00 9 1006.0
20260505192202 51 0 5.2 5.2 0.00 0.00 0.00 9 1006.0
20260505191202 51 338 4.3 4.3 0.00 0.00 0.00 9 1006.0
20260505190202 52 338 4.3 4.3 0.00 0.00 0.00 9 1006.0
20260505185202 52 315 5.2 5.2 0.00 0.00 0.00 9 1006.0
20260505184202 51 338 7.0 7.8 0.00 0.00 0.00 9 1006.0
20260505183202 52 22 6.1 6.1 0.00 0.00 0.00 9 1006.0
20260505182202 51 22 4.3 4.3 0.00 0.00 0.00 9 1006.0
20260505181201 51 338 4.3 4.3 0.00 0.00 0.00 9 1006.0
20260505180201 51 338 2.6 3.5 0.00 0.00 0.00 9 1006.0
20260505175202 51 338 4.3 4.3 0.00 0.00 0.00 9 1006.0
20260505174202 51 338 3.5 4.3 0.00 0.00 0.00 9 1006.0
20260505173202 51 338 5.2 5.2 0.00 0.00 0.00 9 1006.0
20260505172202 51 22 5.2 5.2 0.00 0.00 0.00 9 1006.0
20260505171202 52 0 4.3 4.3 0.00 0.00 0.00 9 1006.0
20260505170202 52 0 4.3 4.3 0.00 0.00 0.00 9 1006.0
20260505165202 52 338 6.1 6.1 0.00 0.00 0.00 9 1006.0
20260505164202 52 338 4.3 4.3 0.00 0.00 0.00 9 1006.0
20260505163202 52 338 5.2 6.1 0.00 0.00 0.00 9 1006.0
20260505162202 52 338 4.3 4.3 0.00 0.00 0.00 9 1006.0
20260505161202 52 45 4.3 4.3 0.00 0.00 0.00 9 1006.0
20260505160202 52 338 6.1 7.0 0.00 0.00 0.00 9 1006.0
20260505153202 52 22 5.2 5.2 0.00 0.00 0.00 9 1006.0
20260505152202 52 338 1.7 2.6 0.00 0.00 0.00 9 1006.7
20260505151202 52 338 4.3 4.3 0.00 0.00 0.00 9 1006.7
20260505150202 52 338 4.3 4.3 0.00 0.00 0.00 9 1006.7